When you browse on this site, cookies collect data to enhance your experience and personalize the content and advertising you see.
Visit our Privacy Policy to learn more. By continuing to use the site, you agree to this use of cookies and data.
  • In Switzerland
  • List of Countries
  • For 7 days
  • Water Temperature
  • Weather Map
  • Weather Widgets
  • user-avatar
    Login

    Hourly Weather Uige

    Today, 29 May, Friday

    Time Temperature Precipitation Wind Pressure Humidity
    00:00 +21°C° 0 mm 0 mps 691 mmHg 89%
    01:00 +20°C° 0 mm 0 mps 691 mmHg 91%
    02:00 +20°C° 0 mm 0 mps 691 mmHg 92%
    03:00 +22°C° 0 mm 1 mps 690 mmHg 92%
    04:00 +21°C° 0 mm 1 mps 690 mmHg 93%
    05:00 +21°C° 0 mm 1 mps 691 mmHg 92%
    06:00 +22°C° 0 mm 1 mps 691 mmHg 91%
    07:00 +22°C° 0 mm 1 mps 692 mmHg 90%
    08:00 +25°C° 0 mm 1 mps 692 mmHg 78%
    09:00 +28°C° 0 mm 1 mps 693 mmHg 65%
    10:00 +31°C° 0 mm 1 mps 693 mmHg 53%
    11:00 +32°C° 0 mm 1 mps 693 mmHg 47%
    12:00 +33°C° 0 mm 1 mps 692 mmHg 42%
    13:00 +34°C° 0 mm 1 mps 692 mmHg 37%
    14:00 +33°C° 0 mm 1 mps 691 mmHg 42%
    15:00 +32°C° 0 mm 1 mps 690 mmHg 47%
    16:00 +31°C° 0 mm 1 mps 690 mmHg 52%
    17:00 +29°C° 0.2 mm 1 mps 690 mmHg 59%
    18:00 +28°C° 0.2 mm 1 mps 690 mmHg 66%
    19:00 +26°C° 0.2 mm 1 mps 690 mmHg 73%
    20:00 +25°C° 0.1 mm 1 mps 691 mmHg 78%
    21:00 +24°C° 0.1 mm 1 mps 691 mmHg 82%
    22:00 +21°C° 0.1 mm 0 mps 691 mmHg 86%
    23:00 +21°C° 0 mm 0 mps 691 mmHg 88%

    Tomorrow, 30 May, Saturday

    Time Temperature Precipitation Wind Pressure Humidity
    00:00 +20°C° 0 mm 0 mps 690 mmHg 89%
    01:00 +20°C° 0 mm 0 mps 690 mmHg 91%
    02:00 +20°C° 0 mm 0 mps 690 mmHg 92%
    03:00 +19°C° 0 mm 0 mps 690 mmHg 93%
    04:00 +19°C° 0 mm 0 mps 690 mmHg 95%
    05:00 +21°C° 0 mm 1 mps 690 mmHg 91%
    06:00 +22°C° 0 mm 1 mps 691 mmHg 87%
    07:00 +22°C° 0 mm 1 mps 692 mmHg 84%
    08:00 +25°C° 0 mm 1 mps 692 mmHg 71%
    09:00 +28°C° 0 mm 1 mps 693 mmHg 57%
    10:00 +31°C° 0 mm 1 mps 693 mmHg 44%
    11:00 +32°C° 0 mm 1 mps 693 mmHg 40%
    12:00 +33°C° 0 mm 1 mps 692 mmHg 35%
    13:00 +35°C° 0 mm 2 mps 692 mmHg 30%
    14:00 +34°C° 0 mm 1 mps 691 mmHg 32%
    15:00 +34°C° 0 mm 1 mps 691 mmHg 34%
    16:00 +33°C° 0 mm 1 mps 690 mmHg 36%
    17:00 +30°C° 0 mm 1 mps 690 mmHg 45%
    18:00 +28°C° 0 mm 1 mps 691 mmHg 54%
    19:00 +25°C° 0 mm 1 mps 691 mmHg 63%
    20:00 +24°C° 0 mm 1 mps 691 mmHg 66%
    21:00 +22°C° 0 mm 0 mps 691 mmHg 69%
    22:00 +21°C° 0 mm 0 mps 691 mmHg 71%
    23:00 +21°C° 0 mm 0 mps 691 mmHg 73%

    Day after tomorrow, 31 May, Sunday

    Time Temperature Precipitation Wind Pressure Humidity
    00:00 +20°C° 0 mm 0 mps 691 mmHg 75%
    01:00 +20°C° 0 mm 0 mps 691 mmHg 76%
    02:00 +19°C° 0 mm 0 mps 691 mmHg 80%
    03:00 +21°C° 0 mm 1 mps 691 mmHg 83%
    04:00 +21°C° 0 mm 1 mps 690 mmHg 87%
    05:00 +21°C° 0 mm 1 mps 691 mmHg 83%
    06:00 +22°C° 0 mm 1 mps 691 mmHg 80%
    07:00 +22°C° 0 mm 1 mps 692 mmHg 77%
    08:00 +25°C° 0 mm 1 mps 692 mmHg 64%
    09:00 +28°C° 0 mm 1 mps 693 mmHg 50%
    10:00 +31°C° 0 mm 2 mps 693 mmHg 37%
    11:00 +32°C° 0 mm 2 mps 693 mmHg 35%
    12:00 +34°C° 0 mm 2 mps 693 mmHg 33%
    13:00 +35°C° 0 mm 2 mps 692 mmHg 30%
    14:00 +35°C° 0 mm 2 mps 692 mmHg 33%
    15:00 +34°C° 0 mm 1 mps 691 mmHg 36%
    16:00 +34°C° 0 mm 1 mps 691 mmHg 38%
    17:00 +31°C° 0 mm 1 mps 691 mmHg 44%
    18:00 +29°C° 0 mm 1 mps 691 mmHg 50%
    19:00 +27°C° 0 mm 1 mps 691 mmHg 57%
    20:00 +26°C° 0 mm 1 mps 692 mmHg 60%
    21:00 +23°C° 0 mm 0 mps 692 mmHg 64%
    22:00 +22°C° 0 mm 0 mps 692 mmHg 68%
    23:00 +21°C° 0 mm 0 mps 692 mmHg 70%

    1 June, Monday

    Time Temperature Precipitation Wind Pressure Humidity
    00:00 +21°C° 0 mm 0 mps 692 mmHg 72%
    01:00 +22°C° 0 mm 1 mps 692 mmHg 74%
    02:00 +20°C° 0 mm 0 mps 691 mmHg 75%
    03:00 +20°C° 0 mm 0 mps 691 mmHg 76%
    04:00 +19°C° 0 mm 0 mps 691 mmHg 78%
    05:00 +20°C° 0 mm 0 mps 691 mmHg 77%
    06:00 +20°C° 0 mm 0 mps 692 mmHg 76%
    07:00 +20°C° 0 mm 0 mps 692 mmHg 75%
    08:00 +25°C° 0 mm 1 mps 693 mmHg 64%
    09:00 +28°C° 0 mm 1 mps 693 mmHg 53%
    10:00 +32°C° 0 mm 1 mps 694 mmHg 43%
    11:00 +32°C° 0 mm 1 mps 693 mmHg 39%
    12:00 +34°C° 0 mm 2 mps 693 mmHg 36%
    13:00 +35°C° 0 mm 2 mps 692 mmHg 33%
    14:00 +34°C° 0 mm 2 mps 692 mmHg 37%
    15:00 +32°C° 0 mm 1 mps 691 mmHg 41%
    16:00 +31°C° 0 mm 1 mps 690 mmHg 46%
    17:00 +29°C° 0 mm 1 mps 691 mmHg 50%
    18:00 +28°C° 0 mm 1 mps 691 mmHg 54%
    19:00 +26°C° 0 mm 1 mps 691 mmHg 58%
    20:00 +25°C° 0 mm 1 mps 692 mmHg 61%
    21:00 +25°C° 0 mm 1 mps 692 mmHg 64%
    22:00 +24°C° 0 mm 1 mps 692 mmHg 67%
    23:00 +21°C° 0 mm 0 mps 692 mmHg 72%

    2 June, Tuesday

    Time Temperature Precipitation Wind Pressure Humidity
    00:00 +20°C° 0 mm 0 mps 692 mmHg 77%
    01:00 +20°C° 0 mm 0 mps 692 mmHg 81%
    02:00 +19°C° 0 mm 0 mps 691 mmHg 86%
    03:00 +19°C° 0 mm 0 mps 691 mmHg 90%
    04:00 +19°C° 0 mm 0 mps 691 mmHg 94%
    05:00 +21°C° 0 mm 1 mps 691 mmHg 93%
    06:00 +22°C° 0 mm 1 mps 692 mmHg 92%
    07:00 +22°C° 0 mm 1 mps 692 mmHg 91%
    08:00 +25°C° 0 mm 1 mps 693 mmHg 76%
    09:00 +28°C° 0 mm 1 mps 693 mmHg 62%
    10:00 +31°C° 0 mm 1 mps 694 mmHg 47%
    11:00 +33°C° 0 mm 1 mps 693 mmHg 42%
    12:00 +34°C° 0 mm 1 mps 693 mmHg 37%
    13:00 +35°C° 0 mm 1 mps 692 mmHg 31%
    14:00 +33°C° 0 mm 1 mps 691 mmHg 37%
    15:00 +31°C° 0 mm 1 mps 691 mmHg 42%
    16:00 +30°C° 0 mm 1 mps 690 mmHg 48%
    17:00 +29°C° 0.2 mm 1 mps 690 mmHg 50%
    18:00 +28°C° 0.2 mm 1 mps 691 mmHg 52%
    19:00 +27°C° 0.2 mm 1 mps 691 mmHg 54%
    20:00 +24°C° 0 mm 0 mps 691 mmHg 59%
    21:00 +23°C° 0 mm 0 mps 691 mmHg 65%
    22:00 +22°C° 0 mm 0 mps 692 mmHg 70%
    23:00 +22°C° 0 mm 0 mps 691 mmHg 76%

    3 June, Wednesday

    Time Temperature Precipitation Wind Pressure Humidity
    00:00 +21°C° 0 mm 0 mps 691 mmHg 82%
    01:00 +20°C° 0 mm 0 mps 691 mmHg 88%
    02:00 +20°C° 0 mm 0 mps 690 mmHg 91%
    03:00 +19°C° 0 mm 0 mps 690 mmHg 93%
    04:00 +19°C° 0 mm 0 mps 690 mmHg 96%
    05:00 +19°C° 0 mm 0 mps 690 mmHg 94%
    06:00 +19°C° 0 mm 0 mps 691 mmHg 92%
    07:00 +20°C° 0 mm 0 mps 691 mmHg 90%
    08:00 +23°C° 0 mm 0 mps 692 mmHg 76%
    09:00 +28°C° 0 mm 1 mps 693 mmHg 63%
    10:00 +31°C° 0 mm 1 mps 693 mmHg 49%
    11:00 +33°C° 0 mm 1 mps 693 mmHg 44%
    12:00 +34°C° 0 mm 1 mps 692 mmHg 40%
    13:00 +35°C° 0 mm 1 mps 692 mmHg 35%
    14:00 +33°C° 0 mm 1 mps 691 mmHg 40%
    15:00 +32°C° 0 mm 1 mps 690 mmHg 45%
    16:00 +31°C° 0 mm 1 mps 690 mmHg 50%
    17:00 +29°C° 0.8 mm 1 mps 690 mmHg 62%
    18:00 +26°C° 0.8 mm 1 mps 690 mmHg 75%
    19:00 +24°C° 0.8 mm 1 mps 690 mmHg 87%
    20:00 +24°C° 0.3 mm 1 mps 690 mmHg 88%
    21:00 +23°C° 0.3 mm 1 mps 691 mmHg 90%
    22:00 +23°C° 0.3 mm 1 mps 691 mmHg 91%
    23:00 +22°C° 0.3 mm 1 mps 691 mmHg 93%
    Show more